Location: Franzen
(48.6167°N, 15.3833°E)
Time: 12:39:12
(UTC+00:00)

Cosmos 1954 Rocket - Pass Details

Date: 22 April 2021
Orbit: 752 x 781 km, 74.0° (Epoch: 16 May)

Event Time Altitude Azimuth Distance (km) Brightness Sun altitude
Exits shadow 20:19:29 - 206° (SSW) 2,498 6.4 -19.7°
Reaches altitude 10° 20:20:04 10° 206° (SSW) 2,272 6.2 -19.7°
Maximum altitude 20:25:13 79° 293° (WNW) 772 4.0 -20.3°
Drops below altitude 10° 20:30:25 10° 21° (NNE) 2,288 6.8 -20.8°
Sets 20:32:48 0° 23° (NNE) 3,219 7.6 -21.1°
